When you browse on this site, cookies collect data to enhance your experience and personalize the content and advertising you see.
Visit our Privacy Policy to learn more. By continuing to use the site, you agree to this use of cookies and data.
  • In Lithuania
  • List of Countries
  • For 7 days
  • Water Temperature
  • Satellite Maps
  • Weather Map
  • Weather Widgets
  • user-avatar
    Login

    Hourly Weather Arakaka

    Today, 21 April, Sunday

    Time Temperature Precipitation Wind Pressure Humidity
    00:00 +22°C° 0 mm 0 mps 754 mmHg 93%
    01:00 +22°C° 0 mm 0 mps 754 mmHg 95%
    02:00 +22°C° 0 mm 0 mps 754 mmHg 97%
    03:00 +22°C° 0 mm 0 mps 754 mmHg 98%
    04:00 +21°C° 0 mm 0 mps 754 mmHg 98%
    05:00 +21°C° 0 mm 0 mps 753 mmHg 98%
    06:00 +23°C° 0 mm 0 mps 754 mmHg 89%
    07:00 +25°C° 0 mm 0 mps 754 mmHg 80%
    08:00 +29°C° 0 mm 1 mps 754 mmHg 71%
    09:00 +31°C° 0 mm 1 mps 754 mmHg 62%
    10:00 +33°C° 0 mm 1 mps 754 mmHg 53%
    11:00 +36°C° 0 mm 2 mps 754 mmHg 44%
    12:00 +36°C° 0 mm 2 mps 754 mmHg 44%
    13:00 +35°C° 0 mm 1 mps 753 mmHg 44%
    14:00 +35°C° 0 mm 1 mps 752 mmHg 45%
    15:00 +33°C° 0.4 mm 1 mps 752 mmHg 56%
    16:00 +31°C° 0.4 mm 2 mps 751 mmHg 68%
    17:00 +29°C° 0.4 mm 2 mps 751 mmHg 79%
    18:00 +28°C° 0.2 mm 1 mps 751 mmHg 84%
    19:00 +27°C° 0.2 mm 1 mps 752 mmHg 89%
    20:00 +25°C° 0.2 mm 1 mps 752 mmHg 95%
    21:00 +25°C° 0 mm 1 mps 753 mmHg 96%
    22:00 +25°C° 0 mm 1 mps 753 mmHg 97%
    23:00 +22°C° 0 mm 0 mps 754 mmHg 98%

    Tomorrow, 22 April, Monday

    Time Temperature Precipitation Wind Pressure Humidity
    00:00 +22°C° 0 mm 0 mps 753 mmHg 98%
    01:00 +22°C° 0 mm 0 mps 753 mmHg 98%
    02:00 +22°C° 0 mm 0 mps 752 mmHg 99%
    03:00 +22°C° 0 mm 0 mps 752 mmHg 99%
    04:00 +22°C° 0 mm 0 mps 752 mmHg 99%
    05:00 +21°C° 0 mm 0 mps 752 mmHg 99%
    06:00 +23°C° 0 mm 0 mps 753 mmHg 93%
    07:00 +26°C° 0 mm 1 mps 753 mmHg 88%
    08:00 +27°C° 0 mm 1 mps 753 mmHg 82%
    09:00 +30°C° 0.1 mm 1 mps 753 mmHg 71%
    10:00 +32°C° 0.1 mm 1 mps 753 mmHg 60%
    11:00 +34°C° 0.1 mm 1 mps 753 mmHg 49%
    12:00 +34°C° 0.1 mm 1 mps 752 mmHg 48%
    13:00 +34°C° 0.1 mm 1 mps 751 mmHg 48%
    14:00 +34°C° 0.1 mm 1 mps 751 mmHg 47%
    15:00 +34°C° 0 mm 1 mps 750 mmHg 48%
    16:00 +34°C° 0 mm 1 mps 750 mmHg 49%
    17:00 +33°C° 0 mm 1 mps 749 mmHg 51%
    18:00 +31°C° 0 mm 2 mps 750 mmHg 58%
    19:00 +30°C° 0 mm 2 mps 750 mmHg 65%
    20:00 +28°C° 0 mm 2 mps 751 mmHg 72%
    21:00 +27°C° 0 mm 1 mps 752 mmHg 78%
    22:00 +26°C° 0 mm 1 mps 752 mmHg 84%
    23:00 +25°C° 0 mm 1 mps 753 mmHg 90%

    Day after tomorrow, 23 April, Tuesday

    Time Temperature Precipitation Wind Pressure Humidity
    00:00 +25°C° 0 mm 1 mps 752 mmHg 92%
    01:00 +22°C° 0 mm 0 mps 752 mmHg 95%
    02:00 +22°C° 0 mm 0 mps 751 mmHg 97%
    03:00 +22°C° 0 mm 0 mps 751 mmHg 98%
    04:00 +22°C° 0 mm 0 mps 751 mmHg 98%
    05:00 +21°C° 0 mm 0 mps 752 mmHg 99%
    06:00 +23°C° 0 mm 0 mps 752 mmHg 92%
    07:00 +26°C° 0 mm 1 mps 753 mmHg 84%
    08:00 +28°C° 0 mm 1 mps 753 mmHg 77%
    09:00 +30°C° 0 mm 1 mps 753 mmHg 68%
    10:00 +31°C° 0 mm 1 mps 753 mmHg 59%
    11:00 +33°C° 0 mm 1 mps 753 mmHg 50%
    12:00 +34°C° 0 mm 1 mps 752 mmHg 46%
    13:00 +35°C° 0 mm 1 mps 751 mmHg 42%
    14:00 +37°C° 0 mm 2 mps 750 mmHg 38%
    15:00 +37°C° 0 mm 2 mps 750 mmHg 41%
    16:00 +36°C° 0 mm 2 mps 749 mmHg 43%
    17:00 +35°C° 0 mm 2 mps 749 mmHg 46%
    18:00 +32°C° 0 mm 2 mps 750 mmHg 54%
    19:00 +30°C° 0 mm 2 mps 751 mmHg 62%
    20:00 +29°C° 0 mm 2 mps 751 mmHg 70%
    21:00 +28°C° 0 mm 2 mps 752 mmHg 76%
    22:00 +27°C° 0 mm 1 mps 752 mmHg 82%
    23:00 +26°C° 0 mm 1 mps 753 mmHg 87%

    24 April, Wednesday

    Time Temperature Precipitation Wind Pressure Humidity
    00:00 +26°C° 0 mm 1 mps 752 mmHg 91%
    01:00 +23°C° 0 mm 0 mps 752 mmHg 94%
    02:00 +23°C° 0 mm 0 mps 751 mmHg 97%
    03:00 +23°C° 0.1 mm 0 mps 751 mmHg 97%
    04:00 +23°C° 0.1 mm 0 mps 752 mmHg 98%
    05:00 +23°C° 0.1 mm 0 mps 752 mmHg 98%
    06:00 +23°C° 1.6 mm 0 mps 752 mmHg 97%
    07:00 +24°C° 1.6 mm 0 mps 753 mmHg 96%
    08:00 +25°C° 1.6 mm 0 mps 753 mmHg 95%
    09:00 +27°C° 1.8 mm 1 mps 753 mmHg 93%
    10:00 +28°C° 1.8 mm 1 mps 754 mmHg 91%
    11:00 +29°C° 1.8 mm 1 mps 754 mmHg 89%
    12:00 +28°C° 1.5 mm 1 mps 753 mmHg 91%
    13:00 +28°C° 1.5 mm 1 mps 752 mmHg 92%
    14:00 +28°C° 1.5 mm 1 mps 752 mmHg 93%
    15:00 +27°C° 1.2 mm 1 mps 752 mmHg 94%
    16:00 +27°C° 1.2 mm 1 mps 752 mmHg 96%
    17:00 +26°C° 1.2 mm 1 mps 752 mmHg 97%
    18:00 +26°C° 0.5 mm 1 mps 752 mmHg 97%
    19:00 +24°C° 0.5 mm 0 mps 753 mmHg 98%
    20:00 +23°C° 0.5 mm 0 mps 753 mmHg 99%
    21:00 +23°C° 0.1 mm 0 mps 753 mmHg 99%
    22:00 +23°C° 0.1 mm 0 mps 754 mmHg 99%
    23:00 +23°C° 0.1 mm 0 mps 754 mmHg 99%

    25 April, Thursday

    Time Temperature Precipitation Wind Pressure Humidity
    00:00 +23°C° 0 mm 0 mps 753 mmHg 99%
    01:00 +22°C° 0 mm 0 mps 753 mmHg 99%
    02:00 +22°C° 0 mm 0 mps 752 mmHg 99%
    03:00 +22°C° 0 mm 0 mps 752 mmHg 99%
    04:00 +22°C° 0 mm 0 mps 753 mmHg 99%
    05:00 +22°C° 0 mm 0 mps 753 mmHg 98%
    06:00 +23°C° 0 mm 0 mps 753 mmHg 97%
    07:00 +24°C° 0 mm 0 mps 754 mmHg 95%
    08:00 +24°C° 0 mm 0 mps 754 mmHg 93%
    09:00 +28°C° 0.4 mm 1 mps 754 mmHg 87%
    10:00 +29°C° 0.4 mm 1 mps 754 mmHg 81%
    11:00 +31°C° 0.4 mm 1 mps 754 mmHg 75%
    12:00 +30°C° 1.1 mm 1 mps 753 mmHg 79%
    13:00 +30°C° 1.1 mm 1 mps 753 mmHg 84%
    14:00 +30°C° 1.1 mm 1 mps 752 mmHg 89%
    15:00 +29°C° 0.7 mm 1 mps 752 mmHg 90%
    16:00 +29°C° 0.7 mm 1 mps 752 mmHg 92%
    17:00 +28°C° 0.7 mm 1 mps 752 mmHg 93%
    18:00 +27°C° 0.3 mm 1 mps 753 mmHg 95%
    19:00 +27°C° 0.3 mm 1 mps 754 mmHg 97%
    20:00 +26°C° 0.3 mm 1 mps 754 mmHg 99%
    21:00 +23°C° 0 mm 0 mps 755 mmHg 99%
    22:00 +23°C° 0 mm 0 mps 755 mmHg 99%
    23:00 +23°C° 0 mm 0 mps 755 mmHg 99%

    26 April, Friday

    Time Temperature Precipitation Wind Pressure Humidity
    00:00 +23°C° 0.1 mm 0 mps 754 mmHg 99%
    01:00 +23°C° 0.1 mm 0 mps 754 mmHg 99%
    02:00 +23°C° 0.1 mm 0 mps 753 mmHg 99%
    03:00 +23°C° 0 mm 0 mps 754 mmHg 99%
    04:00 +22°C° 0 mm 0 mps 754 mmHg 99%
    05:00 +22°C° 0 mm 0 mps 754 mmHg 99%
    06:00 +23°C° 0 mm 0 mps 754 mmHg 96%
    07:00 +26°C° 0 mm 1 mps 755 mmHg 94%
    08:00 +27°C° 0 mm 1 mps 755 mmHg 91%
    09:00 +30°C° 0.1 mm 1 mps 755 mmHg 77%
    10:00 +32°C° 0.1 mm 2 mps 755 mmHg 63%
    11:00 +36°C° 0.1 mm 2 mps 754 mmHg 49%
    12:00 +36°C° 0 mm 2 mps 754 mmHg 45%
    13:00 +37°C° 0 mm 2 mps 753 mmHg 41%
    14:00 +38°C° 0 mm 2 mps 752 mmHg 37%
    15:00 +37°C° 0 mm 2 mps 752 mmHg 40%
    16:00 +36°C° 0 mm 2 mps 751 mmHg 43%
    17:00 +35°C° 0 mm 2 mps 751 mmHg 45%
    18:00 +32°C° 0 mm 2 mps 752 mmHg 54%
    19:00 +30°C° 0 mm 2 mps 753 mmHg 63%
    20:00 +28°C° 0 mm 2 mps 753 mmHg 72%
    21:00 +27°C° 0 mm 2 mps 753 mmHg 78%
    22:00 +26°C° 0 mm 1 mps 754 mmHg 84%
    23:00 +25°C° 0 mm 1 mps 754 mmHg 90%
    Show more